Location: B?ezina
(49.8085°N, 13.6013°E)
Time: 18:18:30
(UTC+00:00)

Daily predictions for brighter satellites

Satellite Brightness Start Highest point End
(mag) Time Altitude Azimuth Time Altitude Azimuth Time Altitude Azimuth
Cosmos 1125 Rocket 4.2 19:23:11 10° NNW 19:28:16 44° ENE 19:33:20 10° SE
CZ-4B R/B 3.7 19:24:10 10° S 19:29:37 63° WSW 19:35:01 10° NNW
BlueWalker 3 2.0 19:28:11 10° WNW 19:31:49 68° NNE 19:35:27 10° ESE
Cosmos 1400 Rocket 2.7 19:32:24 10° S 19:36:01 56° E 19:39:38 10° NNE
SWAS 4.4 19:31:56 10° SSW 19:36:01 85° WNW 19:40:08 10° NNE
Cosmos 1346 Rocket 3.3 19:32:45 10° N 19:36:16 39° ENE 19:39:45 10° SE
CZ-4C R/B 3.4 19:30:44 10° NW 19:37:42 64° SW 19:46:12 10° SSE
CZ-4B R/B 4.1 19:35:26 10° S 19:40:05 52° W 19:44:52 10° NNW
Cosmos 1953 Rocket 3.7 19:36:40 10° NNW 19:41:10 81° W 19:45:36 10° S
Ariane Rocket 3.9 19:37:17 10° SE 19:41:51 36° ENE 19:46:28 10° N
Cosmos 1697 Rocket 3.1 19:36:24 10° NNW 19:41:58 55° NE 19:47:32 10° SE
Cosmos 44 3.6 19:37:44 10° NNW 19:42:11 55° NE 19:46:50 10° SE
Meteor 1-25 Rocket 4.4 19:42:16 10° NNW 19:47:49 73° W 19:53:19 10° S
Cosmos 2074 Rocket 4.4 19:42:06 10° NNW 19:48:16 66° W 19:54:23 10° S
Lacrosse 5 rocket 0.9 19:45:47 10° WNW 19:49:22 88° NNE 19:52:35 12° SE
SPOT 5 3.8 19:47:57 10° S 19:52:03 40° W 19:56:08 10° NNW
Cosmos 1814 Rocket 4.0 19:47:39 10° SSW 19:52:46 88° WNW 19:57:59 10° NNE
Cosmos 1867 3.8 19:50:14 10° NW 19:55:42 66° NE 20:00:45 12° SE
Alouette 2 Rocket 4.5 19:52:45 10° NNW 19:56:12 42° W 20:00:23 10° S
Cosmos-2242 3.2 19:52:12 10° S 19:56:21 52° E 20:00:31 10° NNE
Nadezhda 1 Rocket 4.0 19:50:29 10° S 19:56:33 82° E 20:02:46 10° N
Cosmos 1656 4.4 19:52:18 10° NW 19:57:45 51° WSW 20:03:06 10° S
Cosmos 2154 Rocket 4.4 19:52:02 10° NNW 19:58:11 66° W 20:04:18 10° S
Cosmos 2341 Rocket 4.3 19:54:34 10° N 20:00:43 54° ENE 20:06:24 12° SSE
SeaSat 1 3.5 19:57:12 10° ESE 20:01:37 35° NE 20:06:03 10° NNW
Cosmos 2082 Rocket 3.8 20:00:20 12° SE 20:02:53 15° E 20:06:00 10° ENE
Okean O Rocket 2.6 19:59:09 10° S 20:03:19 44° W 20:07:29 10° NNW
Cosmos 1933 3.5 19:59:34 10° SSW 20:03:24 71° W 20:07:17 10° N
Cosmos 2221 4.0 20:01:07 13° SE 20:03:31 19° E 20:06:31 10° NE
Iridium 4 Rocket 3.9 20:00:43 10° N 20:05:45 68° W 20:11:12 10° S
SPOT 3 Rocket 3.7 20:02:59 12° SSE 20:07:40 61° ENE 20:12:44 10° N
Okean-O 3.3 20:04:31 10° S 20:08:48 53° W 20:13:07 10° NNW
ERS-1 Rocket 3.6 20:05:57 10° S 20:10:51 55° W 20:15:49 10° NNW
Cosmos 1743 3.6 20:14:23 10° NNW 20:17:36 38° W 20:20:48 10° SSW
ISS -3.8 20:17:09 10° WNW 20:20:32 84° NNE 20:23:18 14° ESE
Cosmos 2084 Rocket 3.9 20:18:21 10° SSW 20:22:17 37° SE 20:26:13 10° ENE
Spot 2 Rocket 3.7 20:17:40 10° S 20:22:36 70° WSW 20:27:39 10° NNW
BREEZE-M R/B 4.2 20:02:23 10° W 20:22:55 83° S 20:27:29 10° ESE
NOSS 3-1 (C) 3.0 20:19:33 10° SSW 20:24:11 55° SE 20:29:47 10° NE
ARIANE 6 FM1 Upper Stage 2.7 20:20:13 10° SW 20:24:13 79° NW 20:28:18 10° NE
Cosmos 2333 Rocket 4.5 20:23:26 10° N 20:27:04 17° NNE 20:30:39 10° ENE
Cosmos 1833 Rocket 2.7 20:24:42 10° SSW 20:30:21 87° ESE 20:36:03 10° NNE
Cosmos 1356 Rocket 3.5 20:28:39 15° S 20:31:53 57° E 20:35:55 10° NNE
Cosmos 1733 3.1 20:30:55 10° NNW 20:33:58 55° W 20:36:07 17° S
Cosmos 1821 Rocket 4.2 20:30:08 10° N 20:36:08 54° ENE 20:40:28 19° SSE
USA 245 4.5 20:35:19 12° S 20:39:05 49° W 20:44:03 10° NNW
Cosmos 158 Rocket 4.5 20:33:58 10° SSW 20:39:15 66° WNW 20:44:37 10° NNE
Cosmos 2218 Rocket 4.0 20:34:33 10° N 20:40:58 85° ENE 20:46:01 17° S
Cosmos 1805 3.5 20:45:57 10° N 20:49:18 43° ENE 20:50:42 28° SE
SWARM A 4.2 20:48:25 24° S 20:50:22 88° E 20:53:46 10° N
PSLV R/B 4.2 20:49:41 19° SSW 20:51:41 42° W 20:54:47 10° NNW
Cosmos 1812 Rocket 3.4 20:48:57 18° S 20:52:08 81° E 20:56:28 10° NNE
Cosmos 1980 Rocket 2.2 20:48:10 10° NNW 20:53:49 85° ENE 20:57:27 23° SSE
NOSS 3-1 (A) 3.4 20:50:27 16° S 20:53:52 41° ESE 20:59:10 10° NE
Terra 3.6 20:51:18 10° SSW 20:55:10 25° W 20:59:03 10° NW
USA 234 3.3 20:49:25 10° ENE 20:56:00 90° NW 21:02:34 10° WSW
ATLAS CENTAUR R/B 2.4 20:52:35 10° WSW 20:56:09 42° NW 20:59:49 10° NNE
Cosmos 1315 Rocket 2.6 20:55:12 22° S 20:57:35 75° E 21:01:29 10° NNE
BREEZE-M DEB (TANK) 4.2 20:41:09 10° W 21:00:24 88° S 21:05:11 10° E
Cosmos 2208 Rocket 4.0 20:55:31 10° SSW 21:00:54 85° ESE 21:06:16 10° NNE
Cosmos 2181 Rocket 4.0 20:58:42 15° S 21:04:03 85° E 21:10:28 10° N
SL-16 R/B 3.5 20:59:43 10° NNW 21:04:49 33° NE 21:09:15 13° ESE
DELTA 2 DEB (DPAF) 3.9 21:03:21 10° NNE 21:07:15 60° ESE 21:09:02 30° S
Meteor 1-11 Rocket 4.0 21:02:23 10° N 21:07:49 55° ENE 21:10:57 25° SE
BlueWalker 3 2.7 21:06:05 10° WNW 21:09:24 34° SW 21:10:12 30° S
SL-24 R/B 4.1 21:05:18 10° NNE 21:09:37 88° WNW 21:12:49 19° SSW
Meteor 2-10 4.5 21:04:29 10° NNW 21:10:08 65° W 21:13:58 20° S
Cosmos 2322 Rocket 3.9 21:08:54 10° NNW 21:13:37 26° NE 21:18:17 10° E
Cosmos 1975 4.1 21:11:18 10° NNE 21:14:25 25° ENE 21:15:35 22° E
CZ-4C R/B 3.5 21:15:31 10° NNE 21:19:00 42° E 21:19:42 37° SE
Meteor 1-14 Rocket 4.3 21:14:42 10° NNW 21:20:18 73° W 21:23:50 24° S
Ariane Rocket 4.1 21:16:59 15° SSW 21:20:43 37° W 21:25:26 10° NNW
Cosmos 1238 Rocket 3.1 21:22:12 21° SSW 21:24:22 51° WNW 21:27:36 10° N
Cosmos 2298 Rocket 4.5 21:19:51 10° NNW 21:25:02 54° WSW 21:27:57 25° S
Cosmos 1697 Rocket 4.1 21:20:49 10° NW 21:25:37 29° WSW 21:29:17 15° SSW
Nadezhda 3 Rocket 4.0 21:21:58 25° S 21:25:39 66° E 21:31:51 10° NNE
ARIANE 5 R/B 3.3 21:23:51 27° ESE 21:25:43 43° ENE 21:29:51 10° N
Lacrosse 5 rocket 3.0 21:24:12 10° W 21:26:16 15° SW 21:26:34 15° SW
Cosmos 1842 Rocket 4.2 21:25:47 31° SE 21:27:02 39° E 21:31:02 10° NNE
Cosmos 1766 3.9 21:27:42 10° N 21:30:53 33° ENE 21:31:35 30° E
Cosmos 2278 4.4 21:25:45 10° NNW 21:31:11 46° NE 21:34:47 20° ESE
Cosmos 1934 Rocket 4.3 21:25:56 10° N 21:32:06 58° ENE 21:35:32 27° SE
Cosmos 1470 4.4 21:29:50 10° NNE 21:32:26 19° ENE 21:33:25 17° E
CENTAUR R/B 4.0 21:25:30 10° NW 21:32:56 47° NNE 21:41:37 10° ESE
Cosmos 1908 4.4 21:30:20 10° NNE 21:32:58 22° ENE 21:33:32 21° E
ATLAS 3B R/B 3.5 21:30:06 25° SSE 21:33:22 37° ESE 21:40:18 10° NE
Cosmos 2360 Rocket 3.7 21:28:32 10° NNW 21:33:24 29° NE 21:38:04 11° ESE
Cosmos 1536 3.3 21:32:23 10° NNW 21:36:05 50° W 21:37:32 31° SSW
Cosmos 2369 3.7 21:33:03 10° NNW 21:38:43 71° WSW 21:41:29 31° S
SeaSat 1 3.0 21:36:40 28° S 21:38:54 46° WSW 21:43:39 10° NW
Cosmos 2221 3.3 21:37:29 18° SW 21:40:19 44° WNW 21:44:20 10° N
Cosmos 405 Rocket 2.4 21:37:38 10° N 21:41:03 70° ENE 21:41:40 54° SE
CZ-2C R/B 3.9 21:38:11 10° NNE 21:42:28 49° E 21:43:42 37° SSE
Okean 1 4.4 21:42:37 18° SW 21:44:53 35° WNW 21:48:17 10° N
Cosmos 2082 Rocket 2.1 21:42:05 20° SSW 21:46:05 86° ESE 21:51:45 10° NNE
Cosmos 1674 3.1 21:48:35 31° NW 21:48:35 31° NW 21:50:16 10° N
Timation 1 Rocket 4.3 21:47:15 24° SSW 21:50:55 72° ESE 21:56:54 10° NE
ISS -2.2 21:54:08 10° W 21:56:13 25° WSW 21:56:13 25° WSW
Okean 3 Rocket 3.5 21:53:18 10° N 21:57:44 82° E 21:59:09 43° SSE
COBE Rocket 4.2 21:52:50 10° N 21:57:54 68° WNW 22:00:56 25° SSW
Meteor 1-10 Rocket 4.4 21:54:20 24° SSW 21:58:03 75° WNW 22:03:56 10° N
Landsat 5 3.7 21:55:08 10° NNE 21:59:14 53° E 22:00:10 43° SE
Cosmos 1766 Rocket 4.3 21:56:19 10° NNW 22:00:30 45° W 22:02:12 30° SW
COSMOS 2406 3.1 21:59:10 29° SSW 22:02:11 75° ESE 22:07:54 10° NNE
Cosmos 1842 3.9 22:02:54 33° E 22:02:56 33° E 22:06:05 10° NNE
USA 59 Rocket -0.9 22:10:24 76° E 22:10:24 76° E 22:13:12 10° NE
Cosmos 2333 Rocket 2.7 22:07:01 10° NNW 22:12:40 57° NE 22:15:53 25° SE
MetOp-A 4.1 22:10:43 36° S 22:12:45 65° WSW 22:17:55 10° NNW
Cosmos 1300 4.0 22:14:59 10° NNE 22:17:30 21° ENE 22:17:48 21° E
Cosmos 1151 Rocket 3.6 22:19:28 38° ESE 22:20:13 42° E 22:24:13 10° NNE
ALOS 2 2.6 22:19:44 46° SSE 22:21:01 79° ENE 22:25:25 10° NNW
NOSS 2-1 (E) 2.6 22:21:21 86° SE 22:21:21 86° SE 22:24:24 10° NE
Meteor 2-13 Rocket 4.5 22:19:06 29° SSW 22:22:23 77° WNW 22:28:33 10° N
Cosmos 2219 Rocket 3.3 22:23:11 10° NNW 22:28:28 39° NE 22:32:40 15° ESE
ATLAS CENTAUR R/B 4.5 22:31:21 10° NW 22:33:14 13° NNW 22:35:08 10° N
Meteor 2-4 Rocket 3.7 22:30:52 37° S 22:33:15 84° E 22:39:07 10° NNE
Meteor 1-27 Rocket 4.0 22:30:55 27° SW 22:33:54 60° WNW 22:39:23 10° N
NOSS 2-1 (D) 3.2 22:36:14 44° W 22:36:54 56° NW 22:39:51 10° NE
Cosmos 1980 Rocket 4.0 22:33:30 10° WNW 22:37:03 17° W 22:39:12 14° SW
Sich 1 3.1 22:33:16 10° NNW 22:37:29 65° W 22:38:23 50° SSW
USA 234 4.1 22:32:29 10° ENE 22:38:46 52° NNW 22:45:04 10° W
Cosmos 1680 Rocket 4.4 22:39:24 30° SE 22:40:37 34° ESE 22:45:19 10° NE
Genesis I 4.2 22:38:59 10° NW 22:40:24 24° WNW 22:40:24 24° WNW
NOSS 3-1 (A) 4.2 22:39:43 10° WSW 22:44:34 45° NNW 22:50:32 10° NE
PSLV R/B 3.5 22:41:55 10° NNE 22:46:06 69° ESE 22:46:52 54° SSE
Cosmos 2056 Rocket 4.1 22:42:57 10° NNW 22:48:11 53° ENE 22:50:55 26° SE
SL-16 R/B 2.4 22:43:40 10° NW 22:49:13 55° WSW 22:51:04 38° SSW
Cosmos 1975 4.0 22:46:37 10° NNW 22:49:43 26° W 22:50:13 25° WSW
Cosmos 1707 2.6 22:51:13 54° W 22:51:25 56° WNW 22:54:44 10° N
Cosmos 1624 Rocket 4.5 22:47:05 10° NNW 22:52:13 55° ENE 22:54:51 27° SE
H-2A R/B 4.2 22:50:24 17° ESE 22:52:15 23° ENE 22:55:22 10° N
Cosmos 1500 Rocket 3.8 22:48:18 10° NNW 22:52:35 56° W 22:53:33 44° SW
Cosmos 1538 Rocket 4.1 22:50:41 33° SW 22:53:02 70° WNW 22:58:12 10° NNE
NOSS 2-1 (C) 4.0 22:55:40 27° W 22:56:51 38° NW 22:59:41 10° NNE
Cosmos 2322 Rocket 2.1 22:52:35 10° NNW 22:58:15 76° WSW 23:00:24 39° SSE
Cosmos 1633 Rocket 3.7 22:55:12 10° N 22:59:24 45° ENE 23:00:47 34° ESE
Cosmos 1408 Rocket 4.4 22:57:23 10° NNW 23:01:24 37° W 23:02:20 33° WSW
ARIANE 5 R/B 4.1 23:01:14 22° WSW 23:02:13 23° W 23:05:44 10° NW
COSMOS 2428 4.2 22:58:25 10° NNW 23:03:33 33° NE 23:08:40 10° ESE
Cosmos 1459 Rocket 4.3 22:57:49 10° N 23:03:52 57° ENE 23:07:06 28° SE
Cosmos 1470 3.5 23:03:55 10° NNW 23:07:11 34° W 23:07:19 34° W
Cosmos 1066 Rocket 4.2 23:04:56 38° SSW 23:07:13 83° WNW 23:13:01 10° N
Meteor 2-10 Rocket 4.0 23:02:38 10° N 23:08:21 65° ENE 23:11:09 31° SSE
Cosmos 1805 Rocket 4.3 23:04:26 10° NNW 23:08:37 41° W 23:09:35 36° SW
Cosmos 2278 4.5 23:10:06 10° NW 23:15:12 36° WSW 23:16:39 31° SW
GP-B 3.1 23:11:04 10° N 23:15:27 72° W 23:16:31 49° SSW
Meteor 1-18 Rocket 4.5 23:14:33 34° SSW 23:17:09 67° WNW 23:23:03 10° N
Exosat Rocket 4.1 23:12:26 10° NW 23:17:11 42° WSW 23:18:24 36° SW
Cosmos 2360 Rocket 2.2 23:12:16 10° NNW 23:17:50 64° WSW 23:19:47 40° S
Cosmos 2173 Rocket 4.1 23:12:15 10° N 23:18:39 76° E 23:21:47 32° SSE
Cosmos 1758 4.0 23:19:27 10° N 23:23:07 42° ENE 23:24:09 34° ESE
ATLAS 3B R/B 3.2 23:17:16 15° SW 23:23:43 71° NW 23:31:37 10° NE
Cosmos 1328 Rocket 3.6 23:23:10 49° SSE 23:24:08 67° E 23:28:26 10° NNE
CENTAUR R/B 3.2 23:16:07 10° NW 23:24:19 76° SW 23:31:24 20° SSE
USA 229 DEB 3.5 23:20:46 27° SW 23:24:24 86° NW 23:31:17 10° NE
ASTEX 1 3.4 23:19:28 10° N 23:24:25 74° W 23:26:06 42° SSW
USA 229 3.5 23:20:54 27° SW 23:24:30 86° NW 23:31:21 10° NE
GEOS 3 Rocket 4.0 23:21:49 12° ESE 23:26:28 63° NE 23:31:34 10° NW
Cosmos 1743 Rocket 4.4 23:22:45 10° NNW 23:26:50 36° W 23:27:46 32° WSW
CZ-2C R/B 4.3 23:24:56 10° NNE 23:30:16 36° E 23:32:57 24° SE
Cosmos 2082 Rocket 4.2 23:26:27 10° W 23:30:54 23° NW 23:35:21 10° NNE
In-Cosmos 22 4.2 23:31:00 37° S 23:33:20 78° E 23:39:08 10° NNE
Cosmos 2123 Rocket 4.3 23:30:43 31° SSE 23:33:46 60° E 23:40:00 10° NNE
Cosmos 2112 Rocket 3.9 23:41:11 39° SSW 23:43:12 89° ESE 23:48:28 10° NNE
Cosmos 1455 1.9 23:44:41 10° NNW 23:47:02 56° NNW 23:47:02 56° NNW
Cosmos 2237 Rocket 3.9 23:43:50 10° NNW 23:48:50 31° NE 23:53:48 10° ESE
Cosmos 1300 4.0 23:48:14 10° NW 23:50:26 22° W 23:50:26 22° W
SL-14 R/B 3.1 23:53:45 57° S 23:54:30 89° W 23:58:24 10° N
